Regional Weather Roundup
Issued by NWS

Home | Current Version | Previous Version | Graphics & Text | Print | Product List | Glossary On
Versions: 1 2 3 4 5 6 7 8 9 10 11 12 13 14 15 16 17 18 19 20 21 22 23 24 25 26 27 28 29 30 31 32 33 34 35 36 37 38 39 40 41 42 43 44 45 46 47 48 49 50
000
ASUS43 KLSX 060807
RWRMO

WEATHER SUMMARY FOR MISSOURI
NATIONAL WEATHER SERVICE SPRINGFIELD MO
200 AM CST FRI MAR 06 2015

NOTE: "FAIR" INDICATES FEW OR NO CLOUDS BELOW 12,000 FEET WITH NO
       SIGNIFICANT WEATHER AND/OR OBSTRUCTIONS TO VISIBILITY.
       CURRENT SKY AND/OR WEATHER CONDITIONS ARE NOT AVAILABLE FOR
       CHILLICOTHE AND FARMINGTON.

MOZ001>031-035>038-043-044-053-054-060900-
...NORTHERN AND WESTERN MISSOURI...

CITY           SKY/WX    TMP DP  RH WIND       PRES   REMARKS
KANSAS CTY INT CLEAR     24  13  62 S16       30.38F WCI  11
KANSAS C DTWN  CLEAR     27  12  53 S9G17     30.42F WCI  18
LEE`S SUMMIT   CLEAR     24  11  57 S12       30.42F WCI  13
ST JOSEPH      CLEAR     24  14  65 S9        30.38F WCI  14
CHILLICOTHE      N/A     20  10  65 SE7       30.44F WCI  11
KIRKSVILLE     CLEAR     15  10  80 S9        30.44F WCI   3

$$
MOZ066>068-077>081-088>096-101>105-060900-
...SOUTHWEST MISSOURI...

CITY           SKY/WX    TMP DP  RH WIND       PRES   REMARKS
SPRINGFIELD    CLEAR     21  12  68 S9        30.47S WCI  11
JOPLIN         CLEAR     25  14  63 S12       30.47F WCI  14

$$
MOZ032>034-039>042-045>050-055>058-069>072-060900-
...CENTRAL MISSOURI...

CITY           SKY/WX    TMP DP  RH WIND       PRES   REMARKS
COLUMBIA       CLEAR     16   9  74 SE9       30.48F WCI   4
JEFFERSON CITY CLEAR     17   9  70 E5        30.53F WCI  10
ROLLA          CLEAR     18   9  68 SE9       30.47F WCI   7
SEDALIA        PTCLDY    22  11  62 S10       30.47F WCI  11
WHITEMAN AFB   CLEAR     22  12  67 S9        30.45F WCI  11
WARRENSBURG    CLEAR     23  12  63 SE7       30.46S WCI  15
OSAGE BEACH    CLEAR     18   9  68 SE6       30.49F WCI   9

$$
MOZ051-052-059>065-060900-
...EAST CENTRAL MISSOURI...

CITY           SKY/WX    TMP DP  RH WIND       PRES   REMARKS
ST LOUIS INTL  CLEAR     17   6  62 SE6       30.56F WCI   9
SPIRIT OF STL  CLEAR     15   7  70 CALM      30.55F
ST CHARLES     CLEAR      7   2  80 E6        30.57F WCI  -3

$$
MOZ072>076-082>087-097>100-106>115-060900-
...SOUTH CENTRAL AND SOUTHEAST MISSOURI...

CITY           SKY/WX    TMP DP  RH WIND       PRES   REMARKS
CAPE GIRARDEAU FOG        3  -1  83 CALM      30.61R VSB 3/4
FARMINGTON     CLEAR      9   5  85 SE3       30.56S
POPLAR BLUFF   PTCLDY    13   9  84 NW3       30.60R FOG
WEST PLAINS    CLEAR     15   7  70 S5        30.52S WCI   8

$$



USA.gov is the U.S. government's official web portal to all federal, state and local government web resources and services.